sat.trackr.live / text

‹ back to catalog

LARETS

NORAD 27944 · 2003-042F

PAYLOAD ACTIVE UNKNOWN

§ Identity

Operator
Country
CIS
Launch date
2003-09-27
Launch site
PLMSC
Launch vehicle
Mass (kg)
RCS (m²)
0.14

Purposes: science

External: N2YO · Heavens-Above · Gunter

§ Orbital elements

Epoch: 2026-09-19T22:04:54.584544Z

Period
98.37 min
Inclination
98.4268°
Eccentricity
0.0013502
Mean motion
14.63881894 rev/d
Perigee alt
671.1 km
Apogee alt
690.2 km
Semi-major
7,058.8 km
B*
1.0930e-5
RAAN
67.1772°
Arg perigee
99.9711°
Mean anomaly
260.3015°
Rev number
22,722

§ Raw data

LARETS1 27944U 03042F   26262.92007621  .00000007  00000+0  10930-4 0  99932 27944  98.4268  67.1772 0013502  99.9711 260.3015 14.63881894227226

JSON: /api/v1/satellites/27944 · /tle

For live sub-satellite position, see the globe view (requires WebGL).

§ Visibility from observer

Set your observer location to see the next 7 days of passes ≥ 10°. The values pass through the URL so the page stays shareable.

No JS? Fill the form by hand. The geolocation button needs JavaScript.